TimeEST,TemperatureF,Dew PointF,Humidity,Sea Level PressureIn,VisibilityMPH,Wind Direction,Wind SpeedMPH,Gust SpeedMPH,PrecipitationIn,Events,Conditions,WindDirDegrees,DateUTC
12:15 AM,24.8,21.2,86,29.77,10.0,NE,4.6,-,N/A,,Overcast,50,2011-12-31 05:15:00
12:35 AM,24.8,21.2,86,29.76,10.0,NE,4.6,-,N/A,,Overcast,40,2011-12-31 05:35:00
1:15 AM,24.8,21.2,86,29.77,8.0,WNW,3.5,-,N/A,,Overcast,290,2011-12-31 06:15:00
1:35 AM,24.8,21.2,86,29.77,8.0,North,3.5,-,N/A,,Overcast,360,2011-12-31 06:35:00
1:55 AM,24.8,21.2,86,29.77,7.0,North,3.5,-,N/A,,Overcast,10,2011-12-31 06:55:00
2:15 AM,24.8,21.2,86,29.78,7.0,NNW,4.6,-,N/A,,Overcast,330,2011-12-31 07:15:00
2:35 AM,24.8,21.2,86,29.79,8.0,North,3.5,-,N/A,,Overcast,360,2011-12-31 07:35:00
3:15 AM,24.8,21.2,86,29.80,8.0,NNW,3.5,-,N/A,,Overcast,330,2011-12-31 08:15:00
3:35 AM,24.8,21.2,86,29.82,7.0,NW,5.8,-,N/A,,Overcast,310,2011-12-31 08:35:00
3:55 AM,24.8,23.0,93,29.82,9.0,NW,4.6,-,N/A,,Overcast,320,2011-12-31 08:55:00
4:15 AM,24.8,23.0,93,29.82,9.0,North,3.5,-,N/A,,Overcast,350,2011-12-31 09:15:00
4:35 AM,24.8,21.2,86,29.82,8.0,NW,4.6,-,N/A,,Overcast,320,2011-12-31 09:35:00
4:55 AM,26.6,23.0,86,29.83,7.0,NW,4.6,-,N/A,,Overcast,310,2011-12-31 09:55:00
5:15 AM,26.6,23.0,86,29.83,7.0,NNW,5.8,-,N/A,,Overcast,340,2011-12-31 10:15:00
5:35 AM,24.8,23.0,93,29.83,7.0,NNW,3.5,-,N/A,,Overcast,340,2011-12-31 10:35:00
5:55 AM,24.8,21.2,86,29.83,2.5,Calm,Calm,-,N/A,,Mostly Cloudy,0,2011-12-31 10:55:00
6:15 AM,24.8,21.2,86,29.85,3.0,West,4.6,-,N/A,,Scattered Clouds,270,2011-12-31 11:15:00
6:35 AM,23.0,19.4,86,29.85,2.0,West,4.6,-,N/A,,Scattered Clouds,280,2011-12-31 11:35:00
6:55 AM,23.0,19.4,86,29.85,1.0,Calm,Calm,-,N/A,,Overcast,0,2011-12-31 11:55:00
7:15 AM,19.4,17.6,93,29.85,1.0,Calm,Calm,-,N/A,,Overcast,0,2011-12-31 12:15:00
7:55 AM,17.6,15.8,93,29.88,1.0,Calm,Calm,-,N/A,,Mostly Cloudy,0,2011-12-31 12:55:00
8:15 AM,19.4,15.8,86,29.87,0.5,WSW,3.5,-,N/A,,Overcast,240,2011-12-31 13:15:00
8:35 AM,19.4,15.8,86,29.89,0.2,West,3.5,-,N/A,,Overcast,260,2011-12-31 13:35:00
8:55 AM,17.6,14.0,86,29.90,0.2,Calm,Calm,-,N/A,,Overcast,0,2011-12-31 13:55:00
9:15 AM,17.6,14.0,86,29.91,0.2,Calm,Calm,-,N/A,,Overcast,0,2011-12-31 14:15:00
9:35 AM,19.4,15.8,86,29.92,0.2,West,3.5,-,N/A,,Overcast,280,2011-12-31 14:35:00
9:55 AM,21.2,19.4,93,29.92,0.5,Calm,Calm,-,N/A,,Mostly Cloudy,0,2011-12-31 14:55:00
10:15 AM,24.8,21.2,86,29.92,5.0,Calm,Calm,-,N/A,,Clear,0,2011-12-31 15:15:00
10:35 AM,26.6,23.0,86,29.92,8.0,Calm,Calm,-,N/A,,Clear,0,2011-12-31 15:35:00
10:55 AM,26.6,24.8,93,29.92,10.0,Calm,Calm,-,N/A,,Clear,0,2011-12-31 15:55:00
11:15 AM,26.6,24.8,93,29.91,10.0,Calm,Calm,-,N/A,,Clear,0,2011-12-31 16:15:00
11:35 AM,28.4,26.6,93,29.91,10.0,Calm,Calm,-,N/A,,Clear,0,2011-12-31 16:35:00
11:55 AM,28.4,24.8,86,29.91,10.0,Calm,Calm,-,N/A,,Clear,0,2011-12-31 16:55:00
12:35 PM,30.2,26.6,86,29.91,10.0,Calm,Calm,-,N/A,,Partly Cloudy,0,2011-12-31 17:35:00
12:55 PM,32.0,28.4,87,29.91,10.0,SW,3.5,-,N/A,,Partly Cloudy,220,2011-12-31 17:55:00
1:15 PM,33.8,26.6,75,29.90,10.0,WSW,4.6,-,N/A,,Clear,240,2011-12-31 18:15:00
1:35 PM,33.8,23.0,65,29.89,10.0,Calm,Calm,-,N/A,,Clear,0,2011-12-31 18:35:00
1:55 PM,33.8,23.0,65,29.89,10.0,SW,3.5,-,N/A,,Clear,230,2011-12-31 18:55:00
2:15 PM,33.8,24.8,70,29.89,10.0,South,3.5,-,N/A,,Clear,180,2011-12-31 19:15:00
2:35 PM,33.8,24.8,70,29.89,10.0,SSW,5.8,-,N/A,,Clear,210,2011-12-31 19:35:00
2:55 PM,33.8,24.8,70,29.90,10.0,SSW,3.5,-,N/A,,Scattered Clouds,200,2011-12-31 19:55:00
3:15 PM,33.8,24.8,70,29.91,10.0,Calm,Calm,-,N/A,,Partly Cloudy,0,2011-12-31 20:15:00
3:35 PM,33.8,24.8,70,29.90,10.0,Calm,Calm,-,N/A,,Clear,0,2011-12-31 20:35:00
3:55 PM,32.0,26.6,80,29.91,10.0,SSW,4.6,-,N/A,,Clear,200,2011-12-31 20:55:00
4:15 PM,32.0,26.6,80,29.92,10.0,South,4.6,-,N/A,,Clear,190,2011-12-31 21:15:00
4:35 PM,30.2,24.8,80,29.92,10.0,South,4.6,-,N/A,,Clear,170,2011-12-31 21:35:00
5:15 PM,30.2,26.6,86,29.94,10.0,Calm,Calm,-,N/A,,Clear,0,2011-12-31 22:15:00
5:35 PM,28.4,24.8,86,29.92,10.0,SE,5.8,-,N/A,,Clear,140,2011-12-31 22:35:00
5:55 PM,28.4,24.8,86,29.91,10.0,SE,4.6,-,N/A,,Clear,140,2011-12-31 22:55:00
6:15 PM,28.4,24.8,86,29.91,10.0,SE,5.8,-,N/A,,Clear,130,2011-12-31 23:15:00
6:35 PM,26.6,24.8,93,29.92,10.0,SE,5.8,-,N/A,,Clear,140,2011-12-31 23:35:00
6:55 PM,26.6,23.0,86,29.92,10.0,SE,6.9,-,N/A,,Clear,130,2011-12-31 23:55:00
7:15 PM,28.4,24.8,86,29.89,10.0,ESE,10.4,-,N/A,,Clear,120,2012-01-01 00:15:00
7:35 PM,28.4,24.8,86,29.89,10.0,SE,9.2,-,N/A,,Clear,130,2012-01-01 00:35:00
7:55 PM,28.4,24.8,86,29.90,10.0,SE,9.2,-,N/A,,Partly Cloudy,140,2012-01-01 00:55:00
8:15 PM,28.4,24.8,86,29.88,10.0,SE,11.5,-,N/A,,Mostly Cloudy,130,2012-01-01 01:15:00
8:35 PM,30.2,24.8,80,29.87,10.0,ESE,11.5,-,N/A,,Overcast,120,2012-01-01 01:35:00
8:55 PM,30.2,26.6,86,29.88,10.0,SE,8.1,-,N/A,,Overcast,140,2012-01-01 01:55:00
9:15 PM,30.2,24.8,80,29.87,10.0,SE,9.2,-,N/A,,Overcast,130,2012-01-01 02:15:00
10:15 PM,30.2,26.6,86,29.86,10.0,ESE,8.1,-,N/A,,Overcast,110,2012-01-01 03:15:00
10:35 PM,30.2,26.6,86,29.86,10.0,SE,8.1,-,N/A,,Overcast,130,2012-01-01 03:35:00
10:55 PM,30.2,26.6,86,29.84,10.0,ESE,11.5,-,N/A,,Overcast,120,2012-01-01 03:55:00
11:15 PM,32.0,26.6,80,29.82,10.0,ESE,12.7,-,N/A,,Overcast,110,2012-01-01 04:15:00
11:35 PM,32.0,28.4,87,29.81,10.0,ESE,13.8,20.7,N/A,,Overcast,120,2012-01-01 04:35:00
11:55 PM,33.8,28.4,81,29.80,10.0,SE,11.5,-,N/A,,Overcast,130,2012-01-01 04:55:00